This is the latest recevied weather packets stored in our database for station/object DH1NAI-6. If no packets are shown the sender has not sent any weather packets the latest 10 day(s).
| Time | Temp. | Humidity | Pressure | Rain* | Wind** | Luminosity | Snow |
|---|---|---|---|---|---|---|---|
| 1787613392 | 12.22° C | 84% | 1014.2 hPa | 0 mm | - | 0 W/m² | - |
| 1787612791 | 12.22° C | 83% | 1014.6 hPa | 0 mm | - | 0 W/m² | - |
| 1787612182 | 12.78° C | 82% | 1014.6 hPa | 0 mm | - | 0 W/m² | - |
| 1787611558 | 12.78° C | 81% | 1014.8 hPa | 0 mm | - | 0 W/m² | - |
| 1787610934 | 12.78° C | 82% | 1015.2 hPa | 0 mm | - | 0 W/m² | - |
| 1787610326 | 11.67° C | 89% | 1015.3 hPa | 0 mm | - | 0 W/m² | - |
| 1787609719 | 11.67° C | 91% | 1015.4 hPa | 0 mm | - | 0 W/m² | - |
| 1787609111 | 11.67° C | 92% | 1015.7 hPa | 0 mm | - | 0 W/m² | - |
| 1787608503 | 11.67° C | 91% | 1015.5 hPa | 0 mm | - | 0 W/m² | - |
| 1787607895 | 11.67° C | 91% | 1015.8 hPa | 0 mm | - | 0 W/m² | - |
| 1787607286 | 11.67° C | 91% | 1015.9 hPa | 0 mm | - | 0 W/m² | - |
| 1787606672 | 11.67° C | 90% | 1015.7 hPa | 0 mm | - | 0 W/m² | - |
| 1787606071 | 12.22° C | 90% | 1016 hPa | 0 mm | - | 0 W/m² | - |
| 1787605462 | 12.22° C | 89% | 1016.1 hPa | 0 mm | - | 0 W/m² | - |
| 1787604838 | 12.22° C | 88% | 1016.2 hPa | 0 mm | - | 0 W/m² | - |
| 1787604214 | 12.22° C | 87% | 1016.2 hPa | 0 mm | - | 0 W/m² | - |
| 1787603607 | 12.22° C | 87% | 1016.5 hPa | 0 mm | - | 0 W/m² | - |
| 1787602999 | 12.78° C | 86% | 1016.3 hPa | 0 mm | - | 0 W/m² | - |
| 1787602390 | 12.78° C | 86% | 1016.4 hPa | 0 mm | - | 0 W/m² | - |
| 1787601783 | 12.78° C | 85% | 1016.4 hPa | 0 mm | - | 0 W/m² | - |
| 1787601175 | 12.78° C | 85% | 1016.1 hPa | 0 mm | - | 0 W/m² | - |
| 1787600567 | 13.33° C | 84% | 1016.5 hPa | 0 mm | - | 0 W/m² | - |
| 1787599952 | 13.33° C | 83% | 1016.5 hPa | 0 mm | - | 0 W/m² | - |
| 1787599351 | 13.33° C | 83% | 1016.3 hPa | 0 mm | - | 0 W/m² | - |
| 1787598742 | 13.33° C | 81% | 1016.2 hPa | 0 mm | - | 0 W/m² | - |
* Rain latest hour (hover to see other rain measurements)
** Current wind speed in m/s (hover to see current wind gust speed)